User: anonymous
Location: Holmes Observatory
(37.1039°N, 122.0513°W)
Time: 18:39:28
(UTC-07:00)
Language:

Cosmos 921 Rocket - Orbit

View from above orbital plane
View from above orbital plane
View from above satellite
View from above satellite

Ground track
Ground track

The orbit data is extracted from the following two-line orbital elements,

1 10096U 77055B   14202.82052624  .00000116  00000-0  14648-4 0  4752
2 10096 075.8347 084.0808 0042825 028.6946 039.9419 14.87823505  4367
Epoch (UTC): 21 July 2014 19:41:33
Eccentricity: 0.0042825
inclination: 75.8347°
perigee height: 575 km
apogee height: 634 km
right ascension of ascending node: 84.0808°
argument of perigee: 28.6946°
revolutions per day: 14.87823505
mean anomaly at epoch: 39.9419°
orbit number at epoch: 436

The dashed part of the orbit path shows where the satellite is in the earth's shadow,  

DLR